Other Public Products
Issued by NWS Grand Forks, ND

Home | Current Version | Previous Version | Graphics & Text | Print | Product List | Glossary On
Versions: 1 2 3 4 5 6 7 8 9 10 11 12 13 14 15 16 17 18 19 20 21 22 23 24 25 26 27 28 29 30 31 32 33 34 35 36 37 38 39 40 41 42 43 44 45 46 47 48 49 50
000
FPUS83 KFGF 031710
OPUFGF
PRAIRIE TO PINES WEATHER ROUNDUP
NATIONAL WEATHER SERVICE EASTERN NORTH DAKOTA/GRAND FORKS ND
1200 PM CDT FRI JUL 03 2015

 **SATELLITE DATA USED TO AUGMENT SKY COVER AT AUTOMATED STATIONS**
 *****  WEATHER ACROSS EASTERN NORTH DAKOTA  *****

CITY           SKY/WX    TMP DP  RH WIND       PRES   REMARKS
GRAND FORKS    MOSUNNY   77  64  64 NW6       29.93S HAZE
GRAND FORKS AF MOSUNNY   78  64  61 N6        29.94S HAZE
GRAND CITY NWS   N/A     77 N/A N/A NW12        N/A
BUXTON         NOT AVBL
DEVILS LAKE    SUNNY     75  63  64 NW5       29.96F
FARGO          MOSUNNY   79  66  64 N6        29.93S HAZE
WAHPETON ARPT  SUNNY     72  63  73 W3        29.95S
$$

 *****  WEATHER ACROSS CENTRAL AND WESTERN NORTH DAKOTA  *****

CITY           SKY/WX    TMP DP  RH WIND       PRES   REMARKS
JAMESTOWN      CLOUDY    75  66  73 N7        29.97S HAZE
BISMARCK       PTSUNNY   78  63  59 W6        30.00F HAZE
MINOT          CLOUDY    75  64  68 S5        29.98F HAZE
MINOT AFB      SUNNY     79  72  81 VRB1      29.97F HAZE
GARRISON         N/A     75  66  73 S6        29.99F
WILLISTON      SUNNY     78  62  57 VRB5      29.99F HAZE
DICKINSON      SUNNY     79  60  52 S5        30.01S HAZE
HETTINGER      SUNNY     77  58  51 SE5       30.04F
$$

 *****  OTHER OBSERVATIONS NORTHEAST NORTH DAKOTA  *****

CITY           SKY/WX    TMP DP  RH WIND       PRES   REMARKS
WALHALLA       FAIR      75  66  73 MISG      29.95S HAZE
LANGDON        FAIR      75  59  57 N5        29.98S HAZE
CAVALIER       FAIR      73  63  68 N5        29.94F HAZE
GRAFTON        FAIR      75  66  73 VRB7      29.95S HAZE
CANDO          FAIR      77  63  61 CALM      29.98S HAZE
FORT TOTTEN      N/A     78  67  69 NW3       29.95S
ROLLA            N/A     73  59  60 CALM      30.00S
RUGBY          NOT AVBL
 ***** THE ABOVE OBSERVATIONS ARE NON NWS ARE NOT QUALITY
        CONTROLLED AND MAY MIS-REPORT RAIN FOR SNOW...
$$

 *****  OTHER OBSERVATIONS SOUTHEAST NORTH DAKOTA *****

CITY           SKY/WX    TMP DP  RH WIND       PRES   REMARKS
COOPERSTOWN    NOT AVBL
VALLEY CITY    FAIR      75  72  88 NW7       29.97R HAZE
OAKES            N/A     75  72  88 NW7       29.97S FOG
GWINNER          N/A    N/A N/A N/A MISG        N/A
BUFFALO        NOT AVBL
WYNDMERE       NOT AVBL
 ***** THE ABOVE OBSERVATIONS ARE NON NWS ARE NOT QUALITY
       CONTROLLED AND MAY MIS-REPORT RAIN FOR SNOW...
$$

  *****  WEATHER ACROSS NORTHERN MINNESOTA  *****

CITY           SKY/WX    TMP DP  RH WIND       PRES   REMARKS
FLAG ISLAND    SUNNY     72  57  60 N12       29.90F
WARROAD        SUNNY     75  63  64 N9        29.93R HAZE
ROSEAU         SUNNY     77  64  65 N5        29.92S HAZE
HALLOCK        SUNNY     75  64  69 N3        29.93S HAZE
THF RVR FALLS  SUNNY     73  64  73 NW7       29.94S
HALSTAD        NOT AVBL
FOSSTON        SUNNY     75  64  69 NW6       29.94F HAZE
BAUDETTE       SUNNY     74  61  63 NW12G17   29.91R HAZE
WASKISH        SUNNY     75  64  69 W6        29.91S HAZE
CROOKSTON      MOSUNNY   77  66  69 N6        29.94S HAZE
$$
  *****  WEATHER ACROSS CENTRAL AND WEST MINNESOTA  *****

CITY           SKY/WX    TMP DP  RH WIND       PRES   REMARKS
BEMIDJI        SUNNY     76  64  65 NW8       29.93S HAZE
PARK RAPIDS    CLOUDY    76  63  64 N7        29.93S HAZE
WADENA         MOSUNNY   73  64  73 NW6       29.94S HAZE
DETROIT LAKES    N/A     73  63  68 NW6       29.96S HAZE
MOORHEAD         N/A     75  64  69 N3        29.94F HAZE
FERGUS FALLS   MOSUNNY   73  64  73 CALM      29.94S HAZE
ELBOW LAKE     FAIR      71  65  80 NW5       29.95S
MORRIS MN      MOSUNNY   77  66  69 W5        29.94S
STAPLES        MOSUNNY   73  63  68 NW6       29.93F HAZE
WHEATON        SUNNY     73  66  78 CALM      29.96S
$$
  *****  WEATHER ELSEWHERE ACROSS MINNESOTA  *****

CITY           SKY/WX    TMP DP  RH WIND       PRES   REMARKS
DULUTH         PTSUNNY   74  62  66 VRB7      29.89S
INTRNTL FALLS  MOSUNNY   77  61  57 NW13      29.88S HAZE
ELY            SUNNY     73  63  68 W8        29.87S HAZE
CLOQUET        SUNNY     73  61  64 SW3       29.90S
BRAINERD       CLOUDY    75  64  68 W7        29.93S HAZE
HIBBING        MOSUNNY   76  62  62 W7        29.89S
ALEXANDRIA     MOSUNNY   72  65  78 W6        29.97S
SAINT CLOUD    MOSUNNY   77  61  57 SW8       29.93F
MINNEAPOLIS    MOSUNNY   75  56  51 W7        29.96S
$$

  *****  WEATHER ACROSS SOUTH DAKOTA  *****

CITY           SKY/WX    TMP DP  RH WIND       PRES   REMARKS
SIOUX FALLS    SUNNY     71  60  68 VRB5      30.00F
BROOKINGS      MOSUNNY   72  63  73 W5        30.01F
WATERTOWN      MOSUNNY   75  65  70 VRB5      29.98F
HURON          SUNNY     73  66  78 SW5       29.98S
SISSETON         N/A     78  66  66 N6        29.94S
ABERDEEN       MOSUNNY   77  64  64 VRB3      29.97F HAZE
MITCHELL       CLOUDY    69  65  86 SW8       30.01S
PIERRE         SUNNY     75  66  73 W5        30.00S HAZE
MOBRIDGE       MOSUNNY   77  66  68 W6        29.98S HAZE
RAPID CITY     SUNNY     76  59  55 SE8       30.07F
$$

  *****  SOME WEATHER IN NEARBY STATES *****

CITY           SKY/WX    TMP DP  RH WIND       PRES   REMARKS
GLASGOW MT     SUNNY     78  59  51 S6        29.97F HAZE
GREAT FALLS MT SUNNY     84  51  31 VRB3      29.97F
CHEYENNE WY    MOSUNNY   71  56  58 SW9       30.22F
SCOTTSBLUFF NE SUNNY     77  55  46 VRB5      30.11F
OMAHA NE       MOSUNNY   72  55  55 N7        30.03S
DES MOINES IA  MOSUNNY   75  54  47 E6        30.01R
DAVENPORT IA   SUNNY     73  59  61 E7        29.98F
CHICAGO IL     CLOUDY    73  54  51 SE6       29.97S
EAU CLAIRE WI  MOSUNNY   75  56  51 W9        29.96S
LA CROSSE WI   SUNNY     74  59  59 SW6       29.97F
$$

  *****  SOME NATIONAL WEATHER *****

CITY           SKY/WX    TMP DP  RH WIND       PRES   REMARKS
LA GUARDIA NY  MOSUNNY   77  48  35 CALM      29.98F
RALEIGH NC     PTSUNNY   78  71  79 SW8       29.97F
ATLANTA GA     CLOUDY    74  68  81 W8        30.05F
NEW ORLEANS LA PTSUNNY   91  72  53 VRB7      30.05S HX  98
OKLAHOMA CITY  PTSUNNY   82  73  74 NW6       29.97S
ALBUQUERQUE NM PTSUNNY   77  57  50 SW5       30.21S
SALT LAKE CITY MOSUNNY   89  47  23 SE6       30.02S
LOS ANGELES CA CLOUDY    66  62  87 W7        29.99S
BOISE ID       SUNNY     87  49  26 NW6       29.94F
SEATTLE WA     SUNNY     74  56  53 W3        29.97F
$$

*** WEATHER ACROSS MANITOBA...SASKATCHEWAN AND ONTARIO ***
                ***ONTARIO***

CITY           SKY/WX    TMP DP  RH WIND       PRES   REMARKS
GERALDTON      PTSUNNY   68  59  73 W8G22     29.75S
THUNDER BAY    CLOUDY    75  63  64 W10       29.78F
SIOUX LOOKOUT  NOT AVBL
TORONTO        PTSUNNY   70  45  40 S7        30.00S
BIG TROUT LK   PTSUNNY   66  52  59 N10G17    29.85S
PICKLE LAKE    DRIZZLE   61  55  82 NW7       29.86R
DRYDEN         MOSUNNY   72  54  53 N12G20    29.89S
KENORA         MOSUNNY   75  52  43 N12       29.92S
$$
                *** MANITOBA***

CITY           SKY/WX    TMP DP  RH WIND       PRES   REMARKS
BRANDON        CLOUDY    75  63  64 CALM      29.97S SMOKE
DAUPHIN        SUNNY     77  63  61 W8        29.93S HAZE
ISLAND LAKE    MOSUNNY   68  52  56 W5        29.93S
PILOT MOUND      N/A     72  61  68 NW3         N/A
THE PAS        CLOUDY    75  59  57 S10       29.84F SMOKE
THOMPSON       PTSUNNY   73  52  46 SW7       29.87F
WINNIPEG       SUNNY     75  64  69 NW2       29.94S SMOKE
LYNN LAKE      MOSUNNY   70  54  56 S12G17    29.79F HAZE
CHURCHILL      MOSUNNY   57  48  72 E14       29.93R
GILLAM         PTSUNNY   70  46  43 S6        29.89F
$$
                ***SASKATCHEWAN***

CITY           SKY/WX    TMP DP  RH WIND       PRES   REMARKS
ESTEVAN        NOT AVBL
KINDERSLEY     MOSUNNY   79  64  61 S9        29.89F SMOKE
LLOYDMINSTER   MOSUNNY   82  55  39 SW12      29.84S
PRINCE ALBERT  CLOUDY    81  61  50 SW13      29.84F SMOKE
REGINA         CLOUDY    79  63  57 S10       29.97S SMOKE
YORKTON        CLOUDY    77  64  65 SW9       29.95S HAZE


USA.gov is the U.S. government's official web portal to all federal, state and local government web resources and services.